Flag for U.S.A. Weather past 2 weeks in Carson City, Nevada, U.S.A.

Now
69 °F

Clear.


Feels Like: 69 °F
Forecast: 46 / 80 °F
Wind: 8 mph from West

Location: Reno Tahoe International Airport

Current Time: Aug 22, 2014 at 10:33:53 PM

Latest Report: Aug 22, 2014 at 9:55 PM


Visibility: 10 mi

Pressure: 29.88 "Hg

Humidity: 32%

Dew point: 38 °F

Location of Carson CityLocation

Historic Weather in Carson City — Graph

°F

Carson City temperature yesterday

Maximum temperature yesterday: 89 °F (at 2:55 PM)
Minimum temperature yesterday: 58 °F (at 5:55 AM)
Average temperature yesterday: 74 °F

Past Weeks' High & Low Weather Summary

 TemperatureHumidityPressure
High94 °F (Aug 16, 3:55 PM)73% (Aug 8, 5:55 AM)30.06 "Hg (Aug 8, 5:55 AM)
Low57 °F (Aug 14, 5:55 AM)6% (Aug 17, 2:55 PM)29.63 "Hg (Aug 19, 4:55 PM)
Average75 °F33%29.89 "Hg
* Reported Aug 7 8:55 PM — Aug 22 8:55 PM, Carson City, Weather by CustomWeather, © 2014

Note: Actual official high and low records may vary slightly from our data, if they occured in-between our weather recording intervals... More about our weather records

Advertising

Carson City weather history for previous 24 hours

 ConditionsComfort  
Time TempWeatherWind HumidityBarometerVisibility
8:55 PM
Aug 22
72 °FClear.13 mph29%29.86 "Hg10 mi
7:55 PM74 °FPassing clouds.17 mph26%29.84 "Hg10 mi
6:55 PM79 °FPassing clouds.16 mph20%29.83 "Hg10 mi
5:55 PM82 °FPassing clouds.16 mph17%29.80 "Hg10 mi
4:55 PM84 °FPassing clouds.15 mph15%29.78 "Hg10 mi
3:55 PM85 °FPassing clouds.18 mph15%29.78 "Hg10 mi
2:55 PM84 °FPassing clouds.16 mph15%29.77 "Hg10 mi
1:55 PM86 °FPassing clouds.17 mph15%29.77 "Hg10 mi
12:55 PM85 °FPassing clouds.16 mph16%29.78 "Hg10 mi
11:55 AM82 °FPassing clouds.6 mph17%29.79 "Hg10 mi
10:55 AM80 °FPassing clouds.3 mph18%29.81 "Hg10 mi
9:55 AM74 °FPassing clouds.5 mph25%29.84 "Hg10 mi
8:55 AM69 °FPassing clouds.7 mph35%29.85 "Hg10 mi
7:55 AM63 °FPassing clouds.3 mph43%29.88 "Hg10 mi
6:55 AM57 °FPassing clouds.5 mph55%29.89 "Hg10 mi
5:55 AM58 °FClear.No wind51%29.88 "Hg10 mi
4:55 AM59 °FClear.No wind51%29.88 "Hg10 mi
3:55 AM59 °FClear.5 mph49%29.88 "Hg10 mi
2:55 AM64 °FClear.3 mph41%29.87 "Hg10 mi
1:55 AM65 °FClear.9 mph42%29.88 "Hg10 mi
12:55 AM69 °FClear.8 mph33%29.88 "Hg10 mi
11:55 PM
Aug 21
71 °FClear.10 mph30%29.88 "Hg10 mi
10:55 PM72 °FClear.16 mph31%29.88 "Hg10 mi
Weather by CustomWeather, © 2014

See weather overviewHow to use our weather pages